Fernie, Canada 16 day weather forecast

Slopes altitude range 1065 m - 1925m

Number of lifts: 9 Pistes: -1km

In some cases the lift and piste totals shown are for the ski domain (e.g. Three Valleys) rather than individual resort (e.g. Courchevel)

Overview

The 16 day weather forecast is fully updated 4 times every day.

    • Tue 17 JUL 2018
    • Tue 17
    • 10C 13C
    • Wed 18 JUL 2018
    • Wed 18
    • 9C 14C
    • Thu 19 JUL 2018
    • Thu 19
    • 9C 12C
    • Fri 20 JUL 2018
    • Fri 20
    • 7C 12C
    • Sat 21 JUL 2018
    • Sat 21
    • 6C 10C
    • Sun 22 JUL 2018
    • Sun 22
    • 4C 8C
    • Mon 23 JUL 2018
    • Mon 23
    • 7C 11C
    • Tue 24 JUL 2018
    • Tue 24
    • 7C 9C
    • Wed 25 JUL 2018
    • Wed 25
    • 6C 7C
    • Thu 26 JUL 2018
    • Thu 26
    • 7C 9C
    • Fri 27 JUL 2018
    • Fri 27
    • 7C 19C
    • Sat 28 JUL 2018
    • Sat 28
    • 8C 23C
    • Sun 29 JUL 2018
    • Sun 29
    • 9C 24C
    • Mon 30 JUL 2018
    • Mon 30
    • 10C 26C
    • Tue 31 JUL 2018
    • Tue 31
    • 10C 26C
    • Wed 01 AUG 2018
    • Wed 01
    • 6C 21C

Date:

Time Type 0°C level Temp Chill Snow Cloud Speed Gust Dir Press
3:00 4575m 19°C 19_4 0cm 0% 4mph 5mph 1014mB
6:00 4558m 13°C 13_2 0cm 0% 2mph 3mph 1016mB
9:00 4489m 11°C 11_2 0cm 0% 2mph 3mph 1016mB
12:00 4407m 13°C 13_2 0cm 0% 2mph 3mph 1017mB
15:00 4417m 21°C 21_1 0cm 0% 1mph 1mph 1016mB
18:00 4361m 26°C 26_6 0cm 17% 6mph 7mph 1014mB
21:00 4403m 25°C 25_8 0cm 45% 8mph 9mph 1012mB
0:00 4315m 25°C 25_9 0cm 63% 9mph 11mph 1010mB
3:00 4340m 20°C 20_5 0cm 39% 5mph 13mph 1011mB
6:00 4310m 14°C 14_3 0cm 22% 3mph 5mph 1013mB
9:00 4336m 11°C 11_3 0cm 0% 3mph 4mph 1013mB
12:00 4270m 14°C 14_2 0cm 0% 2mph 3mph 1013mB
15:00 4208m 18°C 18_3 0cm 0% 3mph 5mph 1013mB
18:00 4211m 23°C 23_7 0cm 19% 7mph 10mph 1012mB
21:00 4122m 23°C 23_10 0cm 32% 10mph 12mph 1011mB
0:00 4179m 23°C 23_12 0cm 16% 12mph 14mph 1010mB
3:00 4236m 19°C 19_6 0cm 0% 6mph 15mph 1012mB
6:00 4106m 12°C 12_4 0cm 0% 4mph 5mph 1015mB
9:00 4089m 10°C 10_2 0cm 2% 2mph 2mph 1016mB
12:00 4037m 12°C 12_3 0cm 45% 3mph 3mph 1017mB
15:00 3984m 18°C 18_2 0cm 99% 2mph 3mph 1017mB
18:00 3966m 23°C 23_5 0cm 97% 5mph 7mph 1015mB
21:00 3974m 23°C 23_10 0cm 20% 10mph 11mph 1014mB
0:00 4037m 23°C 23_9 0cm 13% 9mph 12mph 1013mB
3:00 4099m 18°C 18_4 0cm 1% 4mph 5mph 1014mB
6:00 4141m 12°C 12_3 0cm 0% 3mph 4mph 1015mB
9:00 4186m 9°C 9_3 0cm 0% 3mph 3mph 1015mB
12:00 4243m 12°C 12_2 0cm 0% 2mph 3mph 1016mB
15:00 4273m 17°C 17_3 0cm 0% 3mph 4mph 1015mB
18:00 4273m 22°C 22_6 0cm 11% 6mph 9mph 1013mB
21:00 4292m 22°C 22_8 0cm 0% 8mph 14mph 1011mB
0:00 4320m 22°C 22_11 0cm 0% 11mph 19mph 1009mB
3:00 4390m 17°C 17_4 0cm 0% 4mph 5mph 1010mB
6:00 4312m 10°C 10_3 0cm 0% 3mph 4mph 1012mB
9:00 4039m 7°C 7_3 0cm 0% 3mph 4mph 1012mB
12:00 3807m 10°C 10_3 0cm 0% 3mph 4mph 1013mB
15:00 3753m 15°C 15_6 0cm 0% 6mph 15mph 1012mB
18:00 3703m 20°C 20_10 0cm 0% 10mph 18mph 1011mB
21:00 3633m 20°C 20_14 0cm 0% 14mph 22mph 1010mB
0:00 3664m 20°C 20_13 0cm 0% 13mph 19mph 1010mB
3:00 3619m 15°C 15_6 0cm 0% 6mph 19mph 1013mB
6:00 3540m 7°C 7_2 0cm 0% 2mph 2mph 1016mB
9:00 3477m 6°C 6_2 0cm 0% 2mph 2mph 1017mB
12:00 3416m 8°C 8_2 0cm 0% 2mph 2mph 1018mB
15:00 3308m 13°C 13_2 0cm 1% 2mph 4mph 1016mB
18:00 3242m 18°C 18_9 0cm 0% 9mph 16mph 1015mB
21:00 3523m 18°C 18_9 0cm 0% 9mph 12mph 1014mB
0:00 3701m 18°C 18_9 0cm 0% 9mph 11mph 1015mB
3:00 3712m 15°C 15_3 0cm 0% 3mph 4mph 1017mB
6:00 3602m 11°C 11_4 0cm 30% 4mph 5mph 1021mB
9:00 3587m 8°C 8_4 0cm 21% 4mph 5mph 1022mB
12:00 3472m 11°C 11_4 0cm 36% 4mph 6mph 1024mB
15:00 3351m 13°C 13_3 0cm 51% 3mph 6mph 1023mB
18:00 3238m 19°C 19_4 0cm 46% 4mph 5mph 1022mB
21:00 3364m 18°C 18_3 0cm 64% 3mph 4mph 1021mB
0:00 3511m 18°C 18_3 0cm 55% 3mph 3mph 1020mB
3:00 3550m 12°C 12_4 0cm 21% 4mph 5mph 1021mB
6:00 3501m 9°C 9_5 0cm 37% 5mph 5mph 1024mB
9:00 3457m 8°C 8_4 0cm 57% 4mph 5mph 1025mB
12:00 3368m 9°C 9_4 0cm 47% 4mph 5mph 1025mB
15:00 3298m 10°C 10_3 0cm 74% 3mph 4mph 1025mB
18:00 3228m 18°C 18_3 0cm 43% 3mph 3mph 1023mB
21:00 3421m 15°C 15_4 0cm 77% 4mph 4mph 1021mB
0:00 3478m 15°C 15_4 0cm 67% 4mph 4mph 1021mB
3:00 3506m 11°C 11_3 0cm 25% 3mph 4mph 1021mB
6:00 3593m 7°C 7_3 0cm 15% 3mph 4mph 1023mB
9:00 3551m 6°C 6_2 0cm 1% 2mph 2mph 1024mB
12:00 3543m 7°C 7_2 0cm 0% 2mph 2mph 1024mB
15:00 3558m 15°C 15_1 0cm 0% 1mph 1mph 1022mB
18:00 3566m 20°C 20_2 0cm 6% 2mph 3mph 1020mB
21:00 3656m 18°C 18_1 0cm 69% 1mph 4mph 1018mB
0:00 3708m 18°C 18_3 0cm 76% 3mph 6mph 1018mB
3:00 3740m 14°C 14_3 0cm 47% 3mph 4mph 1019mB
6:00 3736m 9°C 9_3 0cm 62% 3mph 4mph 1022mB
9:00 3714m 8°C 8_3 0cm 96% 3mph 4mph 1023mB
12:00 3701m 9°C 9_3 0cm 76% 3mph 4mph 1023mB
15:00 3635m 13°C 13_3 0cm 3% 3mph 5mph 1023mB
18:00 3722m 19°C 19_3 0cm 2% 3mph 4mph 1021mB
21:00 3815m 17°C 17_3 0cm 9% 3mph 4mph 1019mB
0:00 3862m 17°C 17_3 0cm 6% 3mph 7mph 1018mB
Afternoon 0.0260417mm 0.3125 3943m 19°C 19_3 0cm 2% 3mph 4mph 1018mB
Morning 0mm 0 4190m 7°C 7_8 0cm 7% 8mph 13mph 1012mB
Afternoon 0mm 0 4097m 23°C 23_5 0cm 19% 5mph 6mph 1019mB
Morning 0mm 0 4362m 7°C 7_6 0cm 16% 6mph 13mph 1013mB
Afternoon 0mm 0 4404m 24°C 24_2 0cm 10% 2mph 2mph 1016mB
Morning 0mm 0 4565m 9°C 9_11 0cm 8% 11mph 16mph 1008mB
Afternoon 0mm 0 4567m 26°C 26_1 0cm 55% 1mph 1mph 1012mB
Morning 0mm 0 4535m 10°C 10_10 0cm 0% 10mph 14mph 1008mB
Afternoon 0mm 0 4463m 26°C 26_2 0cm 10% 2mph 3mph 1012mB
Morning 0.0364583mm 0.4375 4036m 10°C 10_13 0cm 70% 13mph 17mph 1009mB
Afternoon 0mm 0 4085m 21°C 21_4 0cm 0% 4mph 5mph 1015mB
Morning 0mm 0 3855m 5°C 5_15 0cm 0% 15mph 23mph 1010mB

16 day outlook at a glance

Forecast issued: 17/07/2018 12:19:37

Chat

Your comments and questions. In a resort? Let us know what it's like!


Characters left 250

For terms and conditions see Readers Comments on the Cookie and privacy policy page.